Satellite: SO-50
Catalog number: 27607
Epoch time:      10280.81954548
Element set:     287
Inclination:      064.5595 deg
RA of node:       014.3964 deg
Eccentricity:    0.0042820
Arg of perigee:   029.3854 deg
Mean anomaly:     330.9651 deg
Mean motion:   14.71584406 rev/day
Decay rate:       -2.7e-07 rev/day^2
Epoch rev:           41895
Checksum:              322

Satellite: CO-55
Catalog number: 27844
Epoch time:      10279.58010076
Element set:    0953
Inclination:      098.7112 deg
RA of node:       286.9661 deg
Eccentricity:    0.0009102
Arg of perigee:   207.3664 deg
Mean anomaly:     152.7035 deg
Mean motion:   14.20734523 rev/day
Decay rate:        7.5e-07 rev/day^2
Epoch rev:           37690
Checksum:              306

Satellite: CO-57
Catalog number: 27848
Epoch time:      10279.55558340
Element set:    0898
Inclination:      098.7160 deg
RA of node:       286.0576 deg
Eccentricity:    0.0008960
Arg of perigee:   212.2977 deg
Mean anomaly:     147.7671 deg
Mean motion:   14.20524905 rev/day
Decay rate:        6.8e-07 rev/day^2
Epoch rev:           37685
Checksum:              357

Satellite: AO-51
Catalog number: 28375
Epoch time:      10279.47984200
Element set:    0792
Inclination:      098.0721 deg
RA of node:       266.6984 deg
Eccentricity:    0.0084467
Arg of perigee:   118.9287 deg
Mean anomaly:     242.0414 deg
Mean motion:   14.40701667 rev/day
Decay rate:        3.5e-07 rev/day^2
Epoch rev:           32953
Checksum:              329

Satellite: GENESAT1
Catalog number: 29655
Epoch time:      10216.61700559
Element set:     226
Inclination:      040.0059 deg
RA of node:       067.3006 deg
Eccentricity:    0.0005079
Arg of perigee:   297.8744 deg
Mean anomaly:     064.7087 deg
Mean motion:   16.44862838 rev/day
Decay rate:  1.0637092e-01 rev/day^2
Epoch rev:           20777
Checksum:              320

Satellite: CP3
Catalog number: 31129
Epoch time:      10280.65657542
Element set:     692
Inclination:      097.9291 deg
RA of node:       314.1515 deg
Eccentricity:    0.0101132
Arg of perigee:   244.6836 deg
Mean anomaly:     114.3850 deg
Mean motion:   14.52312734 rev/day
Decay rate:        6.4e-07 rev/day^2
Epoch rev:           18418
Checksum:              281

Satellite: CO-65
Catalog number: 32785
Epoch time:      10280.67197885
Element set:     803
Inclination:      097.8847 deg
RA of node:       343.9723 deg
Eccentricity:    0.0013921
Arg of perigee:   281.1177 deg
Mean anomaly:     078.8496 deg
Mean motion:   14.81728519 rev/day
Decay rate:       1.00e-06 rev/day^2
Epoch rev:           13214
Checksum:              336

Satellite: KKS-1
Catalog number: 33493
Epoch time:      10280.74178262
Element set:     920
Inclination:      098.0980 deg
RA of node:       041.2791 deg
Eccentricity:    0.0020817
Arg of perigee:   134.7531 deg
Mean anomaly:     225.5387 deg
Mean motion:   14.81132234 rev/day
Decay rate:       6.28e-06 rev/day^2
Epoch rev:            9214
Checksum:              285

Satellite: SOHLA-1
Catalog number: 33496
Epoch time:      10279.42135948
Element set:    0224
Inclination:      098.0658 deg
RA of node:       027.1000 deg
Eccentricity:    0.0006113
Arg of perigee:   201.2386 deg
Mean anomaly:     158.8566 deg
Mean motion:   14.69520736 rev/day
Decay rate:        7.6e-07 rev/day^2
Epoch rev:           09121
Checksum:              287

Satellite: TISAT-1
Catalog number: 36799
Epoch time:      10280.74609755
Element set:     193
Inclination:      098.1374 deg
RA of node:       341.1256 deg
Eccentricity:    0.0016024
Arg of perigee:   016.5329 deg
Mean anomaly:     343.6404 deg
Mean motion:   14.80186402 rev/day
Decay rate:       3.62e-06 rev/day^2
Epoch rev:            1296
Checksum:              292

Satellite: STUDSAT
Catalog number: 36801
Epoch time:      10280.84598933
Element set:      74
Inclination:      098.1404 deg
RA of node:       341.1480 deg
Eccentricity:    0.0014364
Arg of perigee:   004.6264 deg
Mean anomaly:     355.5056 deg
Mean motion:   14.79693770 rev/day
Decay rate:       9.44e-06 rev/day^2
Epoch rev:            1297
Checksum:              303

/EX
SB KEPS @ AMSAT  $ORB10280.W
Orbital Elements  10280.WEATHER

HR AMSAT ORBITAL ELEMENTS FOR WEATHER SATELLITES
FROM WA5QGD FORT WORTH,TX October 7, 2010
BID: ORB10280.W
TO ALL RADIO AMATEURS BT

Satellite: NOAA-10
Catalog number: 16969
Epoch time:      10279.60579992
Element set:    0230
Inclination:      098.6493 deg
RA of node:       307.4858 deg
Eccentricity:    0.0011394
Arg of perigee:   246.3570 deg
Mean anomaly:     113.6421 deg
Mean motion:   14.27429221 rev/day
Decay rate:        8.5e-07 rev/day^2
Epoch rev:           25147
Checksum:              317

Satellite: NOAA-11
Catalog number: 19531
Epoch time:      10279.26179463
Element set:    0238
Inclination:      098.7664 deg
RA of node:       006.3797 deg
Eccentricity:    0.0011100
Arg of perigee:   187.8961 deg
Mean anomaly:     172.2031 deg
Mean motion:   14.14936312 rev/day
Decay rate:      -2.73e-06 rev/day^2
Epoch rev:           13684
Checksum:              301

Satellite: NOAA-12
Catalog number: 21263
Epoch time:      10279.94239149
Element set:    0733
Inclination:      098.7653 deg
RA of node:       293.0865 deg
Eccentricity:    0.0012069
Arg of perigee:   198.4966 deg
Mean anomaly:     161.5787 deg
Mean motion:   14.25657614 rev/day
Decay rate:        4.9e-07 rev/day^2
Epoch rev:           00832
Checksum:              335

